Weather History for Dubuque, IA

Change the Weather History Date:

Friday, February 1, 2013

  Actual Average Record
Temperature  
Mean Temperature 1 °F 20 °F  
Max Temperature 10 °F 28 °F 51 °F (1877)
Min Temperature -9 °F 12 °F -21 °F (1951)
Degree Days  
Heating Degree Days 64 45  
Month to date heating degree days 64 45  
Since 1 July heating degree days 4113 4282  
Cooling Degree Days 0 0  
Month to date cooling degree days 0 0  
Year to date cooling degree days 0 0  
Moisture  
Dew Point -3 °F    
Average Humidity 78    
Maximum Humidity 91    
Minimum Humidity 64    
Precipitation  
Precipitation 0.10 in 0.04 in 0.90 in (1915)
Month to date precipitation 0.10 0.04  
Year to date precipitation 1.84 1.21  
Snow  
Snow 1.40 in 0.40 in - ()
Month to date snowfall 1.4 0.4  
Since 1 July snowfall 27.2 25.0  
Snow Depth 4.00 in    
Sea Level Pressure  
Sea Level Pressure 30.24 in    
Wind  
Wind Speed 10 mph (SW)    
Max Wind Speed 18 mph    
Max Gust Speed 23 mph    
Visibility 6 miles    
Events      
T = Trace of Precipitation, MM = Missing Value Source: NWS Daily Summary

Daily Weather History Graph

Daily Weather History Graph

Search for Another Location

Airport:

Trip Planner

Search our weather history database for the weather conditions in past years. The results will help you decide how hot, cold, wet, or windy it might be!

Date:

Astronomy

Feb. 01, 2013 Rise Set
Actual Time 7:16 AM CST 5:17 PM CST
Civil Twilight 6:46 AM CST 5:47 PM CST
Nautical Twilight 6:12 AM CST 6:20 PM CST
Astronomical Twilight 5:39 AM CST 6:53 PM CST
Moon 11:33 PM CST (2/1) 9:41 AM CST (2/1)
Length of Visible Light 11h 00m
Length of Day
10h 01m
Waning Gibbous, 70% of the Moon is Illuminated
Feb 1
Waning Gibbous
Feb 3
Last Quarter
Feb 10
New
Feb 17
First Quarter
Feb 25
Full

Hourly Weather History & Observations

Time (CST) Temp. Windchill Dew Point Humidity Pressure Visibility Wind Dir Wind Speed Gust Speed Precip Events Conditions
12:53 AM -5.1 °F -24.3 °F -11.0 °F 76% 30.32 in 10.0 mi WNW 12.7 mph 18.4 mph N/A   Scattered Clouds
1:38 AM -5.8 °F -27.5 °F -11.2 °F 77% 30.24 in 10.0 mi West 16.1 mph - N/A   Partly Cloudy
1:51 AM -5.8 °F -26.0 °F -11.2 °F 77% 30.25 in 9.0 mi West 13.8 mph - N/A   Mostly Cloudy
1:53 AM -5.1 °F -25.1 °F -11.0 °F 76% 30.35 in 9.0 mi West 13.8 mph - N/A   Mostly Cloudy
2:53 AM -6.0 °F -27.7 °F -11.9 °F 75% 30.35 in 10.0 mi WNW 16.1 mph - N/A   Overcast
3:53 AM -7.1 °F -25.9 °F -13.0 °F 75% 30.36 in 10.0 mi WNW 11.5 mph - N/A   Scattered Clouds
4:53 AM -8.0 °F -22.5 °F -14.1 °F 75% 30.38 in 10.0 mi West 6.9 mph - N/A   Clear
5:53 AM -8.0 °F -25.0 °F -14.1 °F 75% 30.39 in 10.0 mi West 9.2 mph - N/A   Clear
6:53 AM -9.0 °F -26.4 °F -15.0 °F 75% 30.40 in 10.0 mi West 9.2 mph - N/A   Clear
7:53 AM -9.0 °F -25.2 °F -15.0 °F 75% 30.40 in 10.0 mi NW 8.1 mph - N/A   Clear
8:53 AM -7.1 °F -25.0 °F -14.1 °F 72% 30.42 in 10.0 mi WNW 10.4 mph - N/A   Clear
9:53 AM -6.0 °F -20.1 °F -14.1 °F 68% 30.41 in 10.0 mi WNW 6.9 mph - N/A   Clear
10:53 AM -4.0 °F -21.2 °F -11.9 °F 69% 30.41 in 10.0 mi West 10.4 mph - N/A   Clear
11:53 AM -2.9 °F -18.8 °F -11.0 °F 68% 30.40 in 10.0 mi WSW 9.2 mph - N/A   Clear
12:53 PM -0.9 °F -19.9 °F -9.0 °F 69% 30.37 in 10.0 mi WSW 13.8 mph - N/A   Clear
1:53 PM -0.0 °F -11.6 °F -8.0 °F 69% 30.34 in 10.0 mi SW 5.8 mph - N/A   Clear
2:53 PM 1.9 °F -14.7 °F -7.1 °F 66% 30.32 in 10.0 mi SW 11.5 mph - N/A   Clear
3:53 PM 1.9 °F -15.5 °F -6.0 °F 69% 30.30 in 10.0 mi SW 12.7 mph - N/A   Clear
4:53 PM 3.0 °F -12.5 °F -5.1 °F 69% 30.29 in 10.0 mi SSW 10.4 mph - N/A   Mostly Cloudy
5:33 PM 3.2 °F -15.3 °F -4.0 °F 72% 30.18 in 10.0 mi SSW 15.0 mph - N/A   Overcast
5:53 PM 3.0 °F -14.8 °F -4.0 °F 73% 30.26 in 10.0 mi SSW 13.8 mph - N/A   Overcast
6:24 PM 3.2 °F -13.1 °F -2.2 °F 78% 30.15 in 10.0 mi SSW 11.5 mph - N/A   Overcast
6:53 PM 3.9 °F -12.2 °F -2.0 °F 76% 30.25 in 10.0 mi South 11.5 mph - N/A   Overcast
7:38 PM 5.0 °F -10.8 °F -0.4 °F 78% 30.14 in 1.8 mi South 11.5 mph - N/A   Haze
7:53 PM 6.1 °F -8.7 °F 1.0 °F 80% 30.22 in 1.5 mi South 10.4 mph - N/A   Haze
8:04 PM 6.8 °F -8.6 °F 1.4 °F 79% 30.13 in 2.0 mi SSW 11.5 mph - N/A   Haze
8:12 PM 6.8 °F -9.3 °F 1.4 °F 79% 30.12 in 2.5 mi SSW 12.7 mph - N/A   Overcast
8:24 PM 6.8 °F -7.8 °F 1.4 °F 79% 30.12 in 1.8 mi South 10.4 mph - 0.01 in   Overcast
8:50 PM 6.8 °F -5.9 °F 3.2 °F 85% 30.12 in 2.0 mi South 8.1 mph - 0.02 in   Overcast
8:53 PM 7.0 °F -5.7 °F 3.0 °F 84% 30.21 in 2.0 mi South 8.1 mph - 0.02 in   Overcast
8:56 PM 6.8 °F -5.9 °F 3.2 °F 85% 30.12 in 1.8 mi South 8.1 mph - N/A   Overcast
9:13 PM 6.8 °F -3.5 °F 3.2 °F 85% 30.12 in 2.5 mi South 5.8 mph - 0.01 in   Overcast
9:28 PM 8.6 °F -2.6 °F 3.2 °F 79% 30.11 in 3.0 mi South 6.9 mph - 0.01 in   Overcast
9:31 PM 8.6 °F -2.6 °F 3.2 °F 79% 30.11 in 2.5 mi South 6.9 mph - 0.01 in   Overcast
9:44 PM 8.6 °F -2.6 °F 5.0 °F 85% 30.11 in 1.2 mi South 6.9 mph - 0.01 in   Overcast
9:53 PM 8.1 °F -3.2 °F 5.0 °F 87% 30.20 in 1.2 mi South 6.9 mph - 0.02 in   Overcast
10:02 PM 8.6 °F -3.7 °F 5.0 °F 85% 30.11 in 0.8 mi South 8.1 mph - N/A   Mist
10:21 PM 8.6 °F -4.7 °F 5.0 °F 85% 30.10 in 1.2 mi South 9.2 mph - 0.02 in   Overcast
10:53 PM 9.0 °F -4.2 °F 6.1 °F 88% 30.17 in 2.5 mi South 9.2 mph - 0.04 in   Overcast
11:02 PM 8.6 °F -3.7 °F 6.8 °F 92% 30.08 in 1.2 mi South 8.1 mph - N/A   Overcast
11:09 PM 8.6 °F -4.7 °F 6.8 °F 92% 30.07 in 3.0 mi South 9.2 mph - 0.01 in   Overcast
11:18 PM 8.6 °F -5.5 °F 6.8 °F 92% 30.07 in 6.0 mi South 10.4 mph - 0.01 in   Overcast
11:39 PM 10.4 °F -3.3 °F 6.8 °F 85% 30.05 in 1.8 mi South 10.4 mph - 0.01 in   Overcast
11:53 PM 10.0 °F -4.5 °F 7.0 °F 87% 30.13 in 1.2 mi South 11.5 mph - 0.02 in   Overcast